Location: Beuvrequen
(50.8014°N, 1.6652°E)
Time: 03:05:01
(UTC+00:00)

H-2A R/B - Pass Details

Date: 16 October 2021
Orbit: 732 x 837 km, 98.2° (Epoch: 05 December)

Event Time Altitude Azimuth Distance (km) Brightness Sun altitude
Rises 18:25:10 0° 183° (S) 3,312 5.3 -14.4°
Reaches altitude 10° 18:27:35 10° 190° (S) 2,400 4.6 -14.8°
Maximum altitude 18:32:40 45° 262° (W) 1,124 3.4 -15.6°
Drops below altitude 10° 18:37:54 10° 335° (NNW) 2,458 5.0 -16.4°
Sets 18:40:24 0° 342° (NNW) 3,401 5.7 -16.8°
